Regional Weather Roundup
Issued by NWS

Home | Current Version | Previous Version | Graphics & Text | Print | Product List | Glossary On
Versions: 1 2 3 4 5 6 7 8 9 10 11 12 13 14 15 16 17 18 19 20 21 22 23 24 25 26 27 28 29 30 31 32 33 34 35 36 37 38 39 40 41 42 43 44 45 46 47 48 49 50
000
ASUS43 KMKX 020400
RWRWI

WISCONSIN REGIONAL WEATHER ROUNDUP
NATIONAL WEATHER SERVICE MILWAUKEE/SULLIVAN WI
1100 PM CDT TUE SEP 01 2015

NOTE: "FAIR" INDICATES FEW OR NO CLOUDS BELOW 12,000 FEET WITH NO
SIGNIFICANT WEATHER AND/OR OBSTRUCTIONS TO VISIBILITY.

WIZ001-002-006>008-014>016-023>028-020500-
NORTHWEST WISCONSIN

CITY           SKY/WX    TMP DP  RH WIND       PRES   REMARKS
SUPERIOR ARPT  PTCLDY    67  67 100 CALM      29.93R FOG
ASHLAND        CLEAR     67  67 100 NW3       29.95S FOG
HAYWARD        PTCLDY    69  67  93 CALM      29.96S FOG
SIREN          CLOUDY    74  72  93 SE3       29.93F
CUMBERLAND     CLOUDY    72  70  94 CALM      29.96S FOG
RICE LAKE      MOCLDY    72  70  93 CALM      29.96F
CHETEK         MOCLDY   N/A N/A N/A CALM      29.95S
LADYSMITH      MOCLDY    74  72  95 E3        29.98F
EAU CLAIRE     NOT AVBL
MENOMONIE      MOCLDY    74  73  94 CALM      29.94S
NEW RICHMOND   CLOUDY    75  74  96 S3        29.94S
OSCEOLA        CLOUDY    76  76 100 SE5       29.95S
$$

WIZ003>005-009-010-017-018-020500-
NORTH CENTRAL WISCONSIN

CITY           SKY/WX    TMP DP  RH WIND       PRES   REMARKS
MANITOWISH WTR FOG       64  64 100 CALM      30.00R VSB 1/2
ARBOR VITAE    MOCLDY    72  71  96 CALM      30.00S FOG
WOODRUFF       MOCLDY    72  71  96 CALM      30.00S FOG
RHINELANDER    FOG       68  67  96 CALM      30.01S VSB 1/4
EAGLE RIVER    MOCLDY    67  67 100 CALM      30.00S FOG
LAND O LAKES   MOCLDY    65  65  99 CALM      30.01S FOG
PHILLIPS         N/A     69  69 100 CALM      29.98F FOG
TOMAHAWK       FOG       70  69  96 CALM      30.00S VSB 1
MEDFORD        MOCLDY    69  69 100 CALM      29.99S FOG
MERRILL        MOCLDY    71  71 100 CALM      29.99S FOG
$$

WIZ029-030-035-036-043>047-020500-
CENTRAL WISCONSIN

CITY           SKY/WX    TMP DP  RH WIND       PRES   REMARKS
WAUSAU         MOCLDY    74  71  91 CALM      29.97R
MOSINEE        MOCLDY    72  72 100 CALM      29.99S
MARSHFIELD     MOCLDY    73  69  87 S3        29.98S
STEVENS POINT  MOCLDY    72  69  91 CALM      29.99R
WAUPACA        PTCLDY    73  73  98 CALM      29.97S
WAUTOMA        NOT AVBL
WISC RAPIDS    PTCLDY    73  70  90 SW3       29.99R
CAMP DOUGLAS   NOT AVBL
$$

WIZ011>013-019>022-031-037>040-048>050-020500-
NORTHEAST WISCONSIN

CITY           SKY/WX    TMP DP  RH WIND       PRES   REMARKS
ANTIGO         MOCLDY    71  69  93 CALM      30.00S
SHAWANO        MOCLDY    75  71  86 CALM      29.96S
OCONTO         MOCLDY    71  71 100 CALM      29.94S
STURGEON BAY   MOCLDY    73  68  83 S7        29.99R
GREEN BAY      MOCLDY    74  70  87 S3        29.97R
MANITOWOC      NOT AVBL
APPLETON       MOCLDY    75  70  83 S7        29.96S
CLINTONVILLE   PTCLDY    72  70  94 CALM      29.97R FOG
OSHKOSH        MOCLDY    75  71  87 S6        29.98R
$$

WIZ032>034-041-042-053>061-020500-
SOUTHWEST WISCONSIN

CITY           SKY/WX    TMP DP  RH WIND       PRES   REMARKS
LA CROSSE      MOCLDY    78  74  87 SE5       29.95R HX  81
SPARTA         PTCLDY    72  69  91 CALM      29.97R
VIROQUA          N/A     74  74 100 S6        30.00S
BOSCOBEL       MOCLDY    74  72  93 SW3       29.98R
PRAIRIE DU CHI PTCLDY    76  72  85 CALM      29.98R
PLATTEVILLE    MOCLDY    74  72  93 S6        30.01S
$$

WIZ056-057-062-063-064-067-068-020500-
SOUTH CENTRAL WISCONSIN

CITY           SKY/WX    TMP DP  RH WIND       PRES   REMARKS
REEDSBURG      PTCLDY    75  73  92 S3        29.98R
BARABOO/DELLS  PTCLDY    73  70  88 SW3       29.99R
LONE ROCK      NOT AVBL
MINERAL POINT  PTCLDY    75  72  88 S3        30.02S
MADISON        PTCLDY    76  71  85 CALM      29.99S
MIDDLETON      PTCLDY    77  73  86 SW5       30.00S
WATERTOWN      PTCLDY    74  74 100 S3        30.00R
MONROE         PTCLDY    75  70  83 SW10      30.02R
JANESVILLE     PTCLDY    75  72  88 SW5       30.01R
$$

WIZ051-052-058>065-066-070>072-020500-
SOUTHEAST WISCONSIN

CITY           SKY/WX    TMP DP  RH WIND       PRES   REMARKS
MILWAUKEE      MOCLDY    79  70  74 SW8       30.00S HX  82
WAUKESHA       PTCLDY    73  70  88 S3        30.02S
MILWAUKEE/TIMM PTCLDY    77  68  73 S5        30.01S
RACINE         CLEAR     78  70  76 SW7       30.02S HX  80
BURLINGTON     CLEAR     69  68  95 CALM      30.02R
KENOSHA        CLEAR     77  72  84 SW7       30.02R
FOND DU LAC    MOCLDY    74  71  91 S6        29.99R
SHEBOYGAN      PTCLDY    70  69  97 CALM      29.99R FOG
WEST BEND      PTCLDY    72  68  88 CALM      30.00S
JUNEAU         MOCLDY    75  71  88 S3        30.01R
$$

LSZ147-162-020500-
LAKE SUPERIOR

STATION/POSITION TIME  TEMP    WIND        PRES    WAVE
                       AIR SEA DIR/SP/G            HT/PER
                 (UTC) (F)     (DEG/KT/KT) (MB)    (FT/S)
W MID LAKE BUOY  0250   60 56  170/  4/  6 1013.6R   0
DEVILS ISLAND    0300   70     160/  5/  7 1013.5R
PORT WING        0300   68      CALM  /  1 1013.5R
SAXON HARBOR     0340   73      CALM  /  4 1013.2S
$$

LMZ867-665-643>646-020500-
LAKE MICHIGAN

STATION/POSITION TIME  TEMP    WIND        PRES    WAVE
                       AIR SEA DIR/SP/G            HT/PER
                 (UTC) (F)     (DEG/KT/KT) (MB)    (FT/S)
CHAMBERS ISLAND  0300   74     170/  4/  8 1013.9S
S GREEN BAY BUOY 0230   72 67  180/  6/  6 1015.6R
N MID LAKE BUOY  0250   67 65  210/ 12/ 14 1014.2R   2/ 4
NORTHPORT PIER   0300   70     160/  3/  7 1014.2R
SISTER BAY       0219   69     150/ 10/ 13   N/A
ALGOMA LAKESHORE 0314             CALM       N/A
KEWAUNEE LAKESHO 0300   52     150/  2/  3 1013.7S
SHEBOYGAN LAKESH 0300   66     180/  8/ 10 1015.3R
PORT WASHINGTON  0300   61      CALM  /  1 1015.9R
ATWATER BUOY     0300   60 50  170/  8/ 10 1017.0R
MILWAUKEE LAKESH 0310   63     170/  1/  2   N/A
S MID LAKE BUOY  0250   74 70  190/ 12/ 14 1015.8R   1/ 4
KENOSHA   LAKESH 0300   73     190/  5/  8 1015.9R
$$

TC  - TEMPERATURE IN CELSIUS
VSB - VISIBILITY IN STATUTE MILES
WCI - WIND CHILL INDEX
HX  - HEAT INDEX



USA.gov is the U.S. government's official web portal to all federal, state and local government web resources and services.